This demonstration page uses our WeatherBlox Daily Observations layout. Learn more.

Left ArrowRight Arrow

39.51506, -84.39828

Hourly Observations for March 19, 2021

Temp ( °F °C ) Dew Point ( °F °C ) Humidity (%) Winds ( mph kmh ) Pressure ( in mb ) Visibility ( mi km ) Precip ( " mm )
12:15 am 00:15 undefined N/A N/A N/A undefined N/A N/A N/A N/A
12:35 am 00:35 undefined N/A N/A N/A undefined N/A N/A N/A N/A
12:55 am 00:55 undefined N/A N/A N/A undefined N/A N/A N/A N/A
1:15 am 01:15 undefined N/A N/A N/A undefined N/A N/A N/A N/A
1:35 am 01:35 undefined N/A N/A N/A undefined N/A N/A N/A N/A
1:55 am 01:55 undefined N/A N/A N/A undefined N/A N/A N/A N/A
2:15 am 02:15 undefined N/A N/A N/A undefined N/A N/A N/A N/A
2:35 am 02:35 undefined N/A N/A N/A undefined N/A N/A N/A N/A
2:55 am 02:55 undefined N/A N/A N/A undefined N/A N/A N/A N/A
3:15 am 03:15 undefined N/A N/A N/A undefined N/A N/A N/A N/A
3:35 am 03:35 undefined N/A N/A N/A undefined N/A N/A N/A N/A
3:55 am 03:55 undefined N/A N/A N/A undefined N/A N/A N/A N/A
4:15 am 04:15 undefined N/A N/A N/A undefined N/A N/A N/A N/A
4:35 am 04:35 undefined N/A N/A N/A undefined N/A N/A N/A N/A
4:55 am 04:55 undefined N/A N/A N/A undefined N/A N/A N/A N/A
5:15 am 05:15 undefined N/A N/A N/A undefined N/A N/A N/A N/A
5:35 am 05:35 undefined N/A N/A N/A undefined N/A N/A N/A N/A
5:55 am 05:55 undefined N/A N/A N/A undefined N/A N/A N/A N/A
6:15 am 06:15 undefined N/A N/A N/A undefined N/A N/A N/A N/A
6:35 am 06:35 undefined N/A N/A N/A undefined N/A N/A N/A N/A
6:55 am 06:55 undefined N/A N/A N/A undefined N/A N/A N/A N/A
7:15 am 07:15 undefined N/A N/A N/A undefined N/A N/A N/A N/A
7:35 am 07:35 undefined N/A N/A N/A undefined N/A N/A N/A N/A
7:55 am 07:55 undefined N/A N/A N/A undefined N/A N/A N/A N/A
8:15 am 08:15 undefined N/A N/A N/A undefined N/A N/A N/A N/A
8:35 am 08:35 undefined N/A N/A N/A undefined N/A N/A N/A N/A
8:55 am 08:55 undefined N/A N/A N/A undefined N/A N/A N/A N/A
9:15 am 09:15 undefined N/A N/A N/A undefined N/A N/A N/A N/A
9:35 am 09:35 undefined N/A N/A N/A undefined N/A N/A N/A N/A
9:55 am 09:55 undefined N/A N/A N/A undefined N/A N/A N/A N/A
10:15 am 10:15 undefined N/A N/A N/A undefined N/A N/A N/A N/A
10:35 am 10:35 undefined N/A N/A N/A undefined N/A N/A N/A N/A
10:55 am 10:55 undefined N/A N/A N/A undefined N/A N/A N/A N/A
11:15 am 11:15 undefined N/A N/A N/A undefined N/A N/A N/A N/A
11:35 am 11:35 undefined N/A N/A N/A undefined N/A N/A N/A N/A
11:55 am 11:55 undefined 42 5.6 20 -6.6 41 41 NE 15 24 30.43 1030 N/A N/A
12:15 pm 12:15 Sunny 43 5.9 19 -7 39 39 NE 18 30 30.43 1030 10 16 N/A
12:35 pm 12:35 Sunny 44 6.7 20 -6.7 38 38 NE 23 37 30.44 1031 10 16 N/A
12:55 pm 12:55 Sunny 44 6.8 18 -7.7 35 35 NE 21 33 30.44 1031 10 16 N/A
1:15 pm 13:15 Sunny 44 6.8 17 -8.4 33 33 NE 17 28 30.44 1031 10 16 N/A
1:35 pm 13:35 Sunny 46 7.6 19 -7.1 35 35 NE 20 31 30.44 1031 10 16 N/A
1:55 pm 13:55 Sunny 46 7.9 20 -6.8 35 35 NNE 17 28 30.43 1031 10 16 N/A
2:15 pm 14:15 Sunny 46 7.8 19 -7.1 34 34 NNE 17 28 30.43 1031 10 16 N/A
2:35 pm 14:35 Sunny 47 8.4 22 -5.6 37 37 NNE 17 28 30.43 1031 10 16 N/A
2:55 pm 14:55 Sunny 47 8.2 21 -6.2 36 36 NNE 15 24 30.42 1030 10 16 N/A
3:15 pm 15:15 Sunny 48 8.7 22 -5.6 36 36 NE 16 26 30.42 1030 10 16 N/A
3:35 pm 15:35 Sunny 48 8.9 21 -6 35 35 NE 16 26 30.42 1030 10 16 N/A
3:55 pm 15:55 Sunny 49 9.2 21 -6.3 33 33 NNE 16 26 30.42 1030 10 16 N/A
4:15 pm 16:15 Sunny 49 9.5 23 -5 36 36 NE 17 28 30.42 1030 10 16 N/A
4:35 pm 16:35 Sunny 49 9.6 22 -5.3 35 35 NE 12 19 30.42 1030 10 16 N/A
4:55 pm 16:55 Sunny 49 9.5 23 -5.1 36 36 NNE 18 30 30.42 1030 10 16 N/A
5:15 pm 17:15 Sunny 49 9.3 23 -4.9 37 37 NNE 16 26 30.43 1031 10 16 N/A
5:35 pm 17:35 Sunny 49 9.2 24 -4.7 37 37 NNE 15 24 30.42 1030 10 16 N/A
5:55 pm 17:55 Sunny 48 9 24 -4.7 38 38 NE 16 26 30.42 1030 10 16 N/A
6:15 pm 18:15 Sunny 48 8.8 24 -4.4 39 39 NNE 15 24 30.42 1030 10 16 N/A
6:35 pm 18:35 Sunny 47 8.2 24 -4.7 40 40 NNE 15 24 30.43 1031 10 16 N/A
6:55 pm 18:55 Sunny 46 8 24 -4.5 41 41 NNE 14 22 30.43 1031 10 16 N/A
7:15 pm 19:15 Sunny 45 7.3 24 -4.5 43 43 NNE 14 22 30.45 1031 10 16 N/A
7:35 pm 19:35 Sunny 44 6.7 24 -4.3 46 46 NNE 15 24 30.45 1031 10 16 N/A
7:55 pm 19:55 Clear 43 6.1 24 -4.2 48 48 NNE 13 20 30.45 1031 10 16 N/A
8:15 pm 20:15 Clear 42 5.7 25 -4 50 50 NNE 10 17 30.46 1031 10 16 N/A
8:35 pm 20:35 Clear 41 4.8 25 -3.9 54 54 NNE 9 15 30.46 1032 10 16 N/A
8:55 pm 20:55 Clear 40 4.3 26 -3.6 57 57 N 8 13 30.47 1032 10 16 N/A
9:15 pm 21:15 Clear 39 3.8 26 -3.6 59 59 N 7 11 30.49 1032 10 16 N/A
9:35 pm 21:35 Clear 38 3.3 26 -3.6 61 61 N 7 11 30.50 1033 10 16 N/A
9:55 pm 21:55 Clear 37 2.9 25 -3.8 62 62 NNE 8 13 30.50 1033 10 16 N/A
10:15 pm 22:15 Clear 37 2.7 25 -4 62 62 N 7 11 30.51 1033 10 16 N/A
10:35 pm 22:35 Clear 36 2.4 25 -4 63 63 NNE 9 15 30.52 1033 10 16 N/A
10:55 pm 22:55 Clear 36 2.2 25 -4.1 63 63 NNE 8 13 30.52 1034 10 16 N/A
11:15 pm 23:15 Clear 35 1.7 24 -4.2 65 65 N 9 15 30.52 1034 10 16 N/A
11:35 pm 23:35 Clear 34 1.3 24 -4.4 66 66 NNE 8 13 30.52 1034 10 16 N/A
11:55 pm 23:55 Clear 34 1.2 24 -4.4 67 67 NNE 8 13 30.52 1034 10 16 N/A

Powered by AerisWeather